Time,TemperatureF,DewpointF,PressureIn,WindDirection,WindDirectionDegrees,WindSpeedMPH,WindSpeedGustMPH,Humidity,HourlyPrecipIn,Conditions,Clouds,dailyrainin,SoftwareType,DateUTC
2013-06-12 00:00:00,56.0,-99.9,-100.00,South,187,7.0,-999.0,-999,-99.99,,,-99.99,,2013-06-12 07:00:00,
2013-06-12 01:00:00,55.0,-99.9,-100.00,South,185,7.0,-999.0,-999,-99.99,,,-99.99,,2013-06-12 08:00:00,
2013-06-12 02:00:00,55.0,-99.9,-100.00,South,185,6.0,-999.0,-999,-99.99,,,-99.99,,2013-06-12 09:00:00,
2013-06-12 03:00:00,55.0,-99.9,-100.00,South,181,7.0,-999.0,-999,-99.99,,,-99.99,,2013-06-12 10:00:00,
2013-06-12 03:53:00,55.0,-99.9,-100.00,South,181,7.0,-999.0,-999,-99.99,,,-99.99,,2013-06-12 10:53:00,
2013-06-12 04:00:00,55.0,-99.9,-100.00,South,186,7.0,-999.0,-999,-99.99,,,-99.99,,2013-06-12 11:00:00,
2013-06-12 05:00:00,55.0,-99.9,-100.00,South,175,6.0,-999.0,-999,-99.99,,,-99.99,,2013-06-12 12:00:00,
2013-06-12 06:00:00,55.0,-99.9,-100.00,South,175,6.0,-999.0,-999,-99.99,,,-99.99,,2013-06-12 13:00:00,
2013-06-12 07:00:00,56.0,-99.9,-100.00,South,174,6.0,-999.0,-999,-99.99,,,-99.99,,2013-06-12 14:00:00,
2013-06-12 08:00:00,59.0,-99.9,-100.00,South,177,7.0,-999.0,-999,-99.99,,,-99.99,,2013-06-12 15:00:00,
2013-06-12 08:52:00,59.0,-99.9,-100.00,South,177,7.0,-999.0,-999,-99.99,,,-99.99,,2013-06-12 15:52:00,
2013-06-12 09:00:00,60.0,-99.9,-100.00,South,183,8.0,-999.0,-999,-99.99,,,-99.99,,2013-06-12 16:00:00,
2013-06-12 09:53:00,60.0,-99.9,-100.00,South,183,8.0,-999.0,-999,-99.99,,,-99.99,,2013-06-12 16:53:00,
2013-06-12 10:00:00,62.0,-99.9,-100.00,South,180,9.0,-999.0,-999,-99.99,,,-99.99,,2013-06-12 17:00:00,
2013-06-12 10:52:00,62.0,-99.9,-100.00,South,180,9.0,-999.0,-999,-99.99,,,-99.99,,2013-06-12 17:52:00,
2013-06-12 11:00:00,64.0,-99.9,-100.00,South,174,8.0,-999.0,-999,-99.99,,,-99.99,,2013-06-12 18:00:00,
2013-06-12 11:53:00,64.0,-99.9,-100.00,South,174,8.0,-999.0,-999,-99.99,,,-99.99,,2013-06-12 18:53:00,
2013-06-12 12:00:00,66.0,-99.9,-100.00,South,186,7.0,-999.0,-999,-99.99,,,-99.99,,2013-06-12 19:00:00,
2013-06-12 13:00:00,68.0,-99.9,-100.00,SSW,203,7.0,-999.0,-999,-99.99,,,-99.99,,2013-06-12 20:00:00,
2013-06-12 14:00:00,69.0,-99.9,-100.00,SSW,199,7.0,-999.0,-999,-99.99,,,-99.99,,2013-06-12 21:00:00,
2013-06-12 14:53:00,69.0,-99.9,-100.00,SSW,199,7.0,-999.0,-999,-99.99,,,-99.99,,2013-06-12 21:53:00,
2013-06-12 15:00:00,70.0,-99.9,-100.00,South,189,8.0,-999.0,-999,-99.99,,,-99.99,,2013-06-12 22:00:00,
2013-06-12 16:00:00,71.0,-99.9,-100.00,SW,226,8.0,-999.0,-999,-99.99,,,-99.99,,2013-06-12 23:00:00,
2013-06-12 16:53:00,71.0,-99.9,-100.00,SW,226,8.0,-999.0,-999,-99.99,,,-99.99,,2013-06-12 23:53:00,
2013-06-12 17:00:00,69.0,-99.9,-100.00,SSW,203,9.0,-999.0,-999,-99.99,,,-99.99,,2013-06-13 00:00:00,
2013-06-12 17:52:00,69.0,-99.9,-100.00,SSW,203,9.0,-999.0,-999,-99.99,,,-99.99,,2013-06-13 00:52:00,
2013-06-12 18:00:00,67.0,-99.9,-100.00,SW,214,9.0,-999.0,-999,-99.99,,,-99.99,,2013-06-13 01:00:00,
2013-06-12 19:00:00,66.0,-99.9,-100.00,SSW,202,7.0,-999.0,-999,-99.99,,,-99.99,,2013-06-13 02:00:00,
2013-06-12 19:52:00,66.0,-99.9,-100.00,SSW,202,7.0,-999.0,-999,-99.99,,,-99.99,,2013-06-13 02:52:00,
2013-06-12 20:00:00,64.0,-99.9,-100.00,South,184,7.0,-999.0,-999,-99.99,,,-99.99,,2013-06-13 03:00:00,
2013-06-12 20:52:00,64.0,-99.9,-100.00,South,184,7.0,-999.0,-999,-99.99,,,-99.99,,2013-06-13 03:52:00,
2013-06-12 21:00:00,61.0,-99.9,-100.00,South,186,7.0,-999.0,-999,-99.99,,,-99.99,,2013-06-13 04:00:00,
2013-06-12 21:54:00,61.0,-99.9,-100.00,South,186,7.0,-999.0,-999,-99.99,,,-99.99,,2013-06-13 04:54:00,
2013-06-12 22:00:00,60.0,-99.9,-100.00,South,181,6.0,-999.0,-999,-99.99,,,-99.99,,2013-06-13 05:00:00,
2013-06-12 23:00:00,58.0,-99.9,-100.00,South,189,6.0,-999.0,-999,-99.99,,,-99.99,,2013-06-13 06:00:00,